GLOBALSTAR M060 [-]

Last updated on July 6, 2021, 3:36 p.m. UTC

1 26083U 00008C   21186.60969959  .00000029  00000-0  11950-2 0  9997
2 26083  52.0010 133.5455 0003440  65.1952 105.8701 12.17590825976705
UTC
Height (km)
Latitude
Longitude
Inclination
Orbital Period
UTC large
Height (km)
Speed (km/s)
/
Latitude / Longitude
Inclination (degrees)
Orbital Period (minutes)
Azimuth
Elevation
Range (km)
Doppler Factor
iOS Compass Heading
iOS Angle